• In Netherlands
  • List of Countries
  • For 7 days
  • Water Temperature
  • Satellite Maps
  • Weather Map
  • Weather Widgets
  • user-avatar
    Login

    Hourly Weather Kotonu

    Today, 26 March, Sunday

    Time Temperature Precipitation Wind Pressure Humidity
    00:00 +29°C° 0 mm 4 mps 758 mmHg 84%
    01:00 +29°C° 0 mm 4 mps 758 mmHg 85%
    02:00 +29°C° 0 mm 4 mps 757 mmHg 86%
    03:00 +29°C° 0 mm 4 mps 757 mmHg 87%
    04:00 +29°C° 0 mm 4 mps 757 mmHg 88%
    05:00 +28°C° 0 mm 3 mps 757 mmHg 89%
    06:00 +28°C° 0 mm 3 mps 757 mmHg 89%
    07:00 +30°C° 0 mm 3 mps 757 mmHg 79%
    08:00 +33°C° 0 mm 3 mps 758 mmHg 69%
    09:00 +35°C° 0 mm 4 mps 758 mmHg 58%
    10:00 +36°C° 0 mm 4 mps 758 mmHg 54%
    11:00 +38°C° 0 mm 4 mps 758 mmHg 49%
    12:00 +40°C° 0 mm 4 mps 757 mmHg 45%
    13:00 +38°C° 0 mm 4 mps 757 mmHg 47%
    14:00 +37°C° 0 mm 5 mps 756 mmHg 49%
    15:00 +37°C° 0 mm 5 mps 756 mmHg 52%
    16:00 +35°C° 0.1 mm 5 mps 756 mmHg 58%
    17:00 +34°C° 0.1 mm 5 mps 756 mmHg 64%
    18:00 +32°C° 0.1 mm 4 mps 756 mmHg 70%
    19:00 +32°C° 0 mm 4 mps 757 mmHg 74%
    20:00 +30°C° 0 mm 4 mps 757 mmHg 77%
    21:00 +30°C° 0 mm 4 mps 758 mmHg 81%
    22:00 +30°C° 0 mm 4 mps 758 mmHg 81%
    23:00 +30°C° 0 mm 4 mps 758 mmHg 82%

    Tomorrow, 27 March, Monday

    Time Temperature Precipitation Wind Pressure Humidity
    00:00 +29°C° 0 mm 4 mps 758 mmHg 83%
    01:00 +29°C° 0 mm 4 mps 757 mmHg 84%
    02:00 +29°C° 0 mm 4 mps 756 mmHg 85%
    03:00 +29°C° 0 mm 4 mps 756 mmHg 86%
    04:00 +29°C° 0 mm 4 mps 756 mmHg 87%
    05:00 +29°C° 0 mm 4 mps 756 mmHg 89%
    06:00 +28°C° 0 mm 3 mps 756 mmHg 90%
    07:00 +30°C° 0 mm 4 mps 757 mmHg 83%
    08:00 +32°C° 0 mm 4 mps 757 mmHg 75%
    09:00 +34°C° 0 mm 4 mps 758 mmHg 68%
    10:00 +35°C° 0 mm 4 mps 758 mmHg 62%
    11:00 +37°C° 0 mm 4 mps 757 mmHg 56%
    12:00 +38°C° 0 mm 4 mps 757 mmHg 50%
    13:00 +38°C° 0.1 mm 4 mps 757 mmHg 51%
    14:00 +37°C° 0.1 mm 4 mps 756 mmHg 52%
    15:00 +37°C° 0.1 mm 4 mps 756 mmHg 53%
    16:00 +35°C° 0 mm 4 mps 756 mmHg 59%
    17:00 +34°C° 0 mm 4 mps 756 mmHg 66%
    18:00 +32°C° 0 mm 4 mps 756 mmHg 72%
    19:00 +32°C° 0 mm 4 mps 756 mmHg 76%
    20:00 +30°C° 0 mm 3 mps 757 mmHg 80%
    21:00 +30°C° 0 mm 3 mps 758 mmHg 83%
    22:00 +30°C° 0 mm 4 mps 757 mmHg 84%
    23:00 +30°C° 0 mm 4 mps 757 mmHg 84%

    Day after tomorrow, 28 March, Tuesday

    Time Temperature Precipitation Wind Pressure Humidity
    00:00 +29°C° 0 mm 4 mps 757 mmHg 84%
    01:00 +29°C° 0 mm 4 mps 756 mmHg 85%
    02:00 +29°C° 0 mm 4 mps 756 mmHg 86%
    03:00 +29°C° 0 mm 4 mps 755 mmHg 86%
    04:00 +29°C° 0 mm 4 mps 755 mmHg 87%
    05:00 +29°C° 0 mm 4 mps 756 mmHg 88%
    06:00 +28°C° 0 mm 4 mps 756 mmHg 89%
    07:00 +30°C° 0 mm 4 mps 756 mmHg 82%
    08:00 +32°C° 0 mm 4 mps 757 mmHg 74%
    09:00 +34°C° 0 mm 4 mps 757 mmHg 67%
    10:00 +35°C° 0 mm 4 mps 757 mmHg 60%
    11:00 +37°C° 0 mm 4 mps 756 mmHg 53%
    12:00 +40°C° 0 mm 4 mps 756 mmHg 46%
    13:00 +38°C° 0 mm 4 mps 755 mmHg 48%
    14:00 +38°C° 0 mm 4 mps 755 mmHg 50%
    15:00 +37°C° 0 mm 4 mps 754 mmHg 52%
    16:00 +35°C° 0 mm 4 mps 754 mmHg 59%
    17:00 +34°C° 0 mm 5 mps 755 mmHg 67%
    18:00 +32°C° 0 mm 5 mps 755 mmHg 75%
    19:00 +32°C° 0 mm 5 mps 756 mmHg 77%
    20:00 +30°C° 0 mm 5 mps 756 mmHg 79%
    21:00 +30°C° 0 mm 5 mps 757 mmHg 81%
    22:00 +30°C° 0 mm 5 mps 757 mmHg 82%
    23:00 +30°C° 0 mm 5 mps 757 mmHg 82%

    29 March, Wednesday

    Time Temperature Precipitation Wind Pressure Humidity
    00:00 +30°C° 0 mm 5 mps 756 mmHg 83%
    01:00 +30°C° 0 mm 5 mps 756 mmHg 83%
    02:00 +30°C° 0 mm 5 mps 755 mmHg 83%
    03:00 +30°C° 0 mm 4 mps 755 mmHg 84%
    04:00 +30°C° 0 mm 4 mps 755 mmHg 83%
    05:00 +30°C° 0 mm 4 mps 755 mmHg 82%
    06:00 +30°C° 0 mm 4 mps 756 mmHg 82%
    07:00 +32°C° 0 mm 4 mps 756 mmHg 75%
    08:00 +33°C° 0 mm 5 mps 757 mmHg 69%
    09:00 +35°C° 0 mm 5 mps 757 mmHg 62%
    10:00 +36°C° 0.1 mm 5 mps 757 mmHg 59%
    11:00 +37°C° 0.1 mm 4 mps 756 mmHg 55%
    12:00 +37°C° 0.1 mm 4 mps 756 mmHg 52%
    13:00 +37°C° 0.1 mm 5 mps 755 mmHg 52%
    14:00 +37°C° 0.1 mm 5 mps 755 mmHg 53%
    15:00 +37°C° 0.1 mm 5 mps 754 mmHg 53%
    16:00 +35°C° 0.1 mm 5 mps 754 mmHg 60%
    17:00 +34°C° 0.1 mm 5 mps 755 mmHg 66%
    18:00 +32°C° 0.1 mm 4 mps 755 mmHg 72%
    19:00 +32°C° 0 mm 4 mps 756 mmHg 76%
    20:00 +30°C° 0 mm 4 mps 756 mmHg 79%
    21:00 +30°C° 0 mm 4 mps 757 mmHg 82%
    22:00 +30°C° 0 mm 4 mps 757 mmHg 83%
    23:00 +30°C° 0 mm 5 mps 756 mmHg 83%

    30 March, Thursday

    Time Temperature Precipitation Wind Pressure Humidity
    00:00 +30°C° 0 mm 5 mps 756 mmHg 84%
    01:00 +29°C° 0 mm 5 mps 756 mmHg 84%
    02:00 +29°C° 0 mm 5 mps 755 mmHg 85%
    03:00 +29°C° 0 mm 4 mps 755 mmHg 86%
    04:00 +29°C° 0 mm 4 mps 755 mmHg 87%
    05:00 +29°C° 0 mm 4 mps 756 mmHg 87%
    06:00 +29°C° 0 mm 4 mps 756 mmHg 88%
    07:00 +30°C° 0 mm 4 mps 757 mmHg 79%
    08:00 +33°C° 0 mm 4 mps 757 mmHg 70%
    09:00 +35°C° 0 mm 4 mps 758 mmHg 62%
    10:00 +36°C° 0 mm 4 mps 757 mmHg 57%
    11:00 +37°C° 0 mm 4 mps 756 mmHg 52%
    12:00 +40°C° 0 mm 4 mps 756 mmHg 47%
    13:00 +38°C° 0 mm 4 mps 755 mmHg 48%
    14:00 +38°C° 0 mm 4 mps 755 mmHg 49%
    15:00 +38°C° 0 mm 4 mps 754 mmHg 50%
    16:00 +36°C° 0 mm 4 mps 755 mmHg 58%
    17:00 +34°C° 0 mm 5 mps 755 mmHg 66%
    18:00 +32°C° 0 mm 5 mps 756 mmHg 75%
    19:00 +32°C° 0 mm 5 mps 756 mmHg 78%
    20:00 +30°C° 0 mm 5 mps 757 mmHg 81%
    21:00 +30°C° 0 mm 5 mps 757 mmHg 84%
    22:00 +30°C° 0 mm 5 mps 757 mmHg 84%
    23:00 +30°C° 0 mm 5 mps 757 mmHg 84%

    31 March, Friday

    Time Temperature Precipitation Wind Pressure Humidity
    00:00 +30°C° 0 mm 6 mps 756 mmHg 84%
    01:00 +30°C° 0 mm 5 mps 756 mmHg 84%
    02:00 +30°C° 0 mm 5 mps 756 mmHg 83%
    03:00 +30°C° 0 mm 5 mps 755 mmHg 83%
    04:00 +30°C° 0 mm 5 mps 756 mmHg 83%
    05:00 +30°C° 0 mm 5 mps 756 mmHg 83%
    06:00 +30°C° 0 mm 5 mps 757 mmHg 82%
    07:00 +32°C° 0 mm 4 mps 757 mmHg 77%
    08:00 +33°C° 0 mm 4 mps 758 mmHg 72%
    09:00 +34°C° 0 mm 4 mps 758 mmHg 66%
    10:00 +35°C° 0.1 mm 4 mps 758 mmHg 62%
    11:00 +36°C° 0.1 mm 5 mps 757 mmHg 57%
    12:00 +37°C° 0.1 mm 5 mps 757 mmHg 53%
    13:00 +37°C° 0.1 mm 5 mps 756 mmHg 54%
    14:00 +37°C° 0.1 mm 5 mps 756 mmHg 55%
    15:00 +36°C° 0.1 mm 5 mps 755 mmHg 56%
    16:00 +35°C° 0 mm 4 mps 756 mmHg 62%
    17:00 +33°C° 0 mm 4 mps 756 mmHg 68%
    18:00 +32°C° 0 mm 4 mps 756 mmHg 75%
    19:00 +32°C° 0 mm 4 mps 757 mmHg 78%
    20:00 +30°C° 0 mm 4 mps 757 mmHg 80%
    21:00 +30°C° 0 mm 4 mps 757 mmHg 83%
    22:00 +30°C° 0 mm 4 mps 757 mmHg 84%
    23:00 +29°C° 0 mm 4 mps 756 mmHg 84%
    Show more